Skip Page Navigation
NASA JPL Caltech
NASA Logo - Jet Propulsion Laboratory + View the NASA Portal
+ Center for Near-Earth Object Studies
JPL Home Earth Solar System Stars & Galaxies Technology
JPL Solar System Dynamics
BODIES ORBITS EPHEMERIDES TOOLS PHYSICAL DATA DISCOVERY FAQ SITE MAP
JPL Small-Body Database Browser
Search: [ help ]  
(2008 OV2)
Classification: Amor [NEO]          SPK-ID: 3421944
Ephemeris | Orbit Diagram | Orbital Elements | Mission Design | Physical Parameters | Close-Approach Data ]

[ show orbit diagram ]
Orbital Elements at Epoch 2459000.5 (2020-May-31.0) TDB
Reference: JPL 19 (heliocentric ecliptic J2000)
 Element Value Uncertainty (1-sigma)   Units 
e .5731018029119079 5.1762e-08  
a 2.382349717230799 1.6333e-08 au
q 1.017020799119154 1.2846e-07 au
i 15.29704686504982 2.0015e-05 deg
node 286.3640092081442 4.2174e-05 deg
peri 307.6156073606765 5.4016e-05 deg
M 101.3898006989608 9.3473e-06 deg
tp 2458622.232989946319
(2019-May-18.73298995)
3.6891e-05 TDB
period 1343.094893969162
3.68
1.3812e-05
3.782e-08
d
yr
n .2680376506652596 2.7565e-09 deg/d
Q 3.747678635342444 2.5694e-08 au
  Orbit Determination Parameters
   # obs. used (total)      70  
   data-arc span      4009 days (10.98 yr)  
   first obs. used      2008-07-28  
   last obs. used      2019-07-20  
   planetary ephem.      DE431  
   SB-pert. ephem.      SB431-N16  
   condition code      0  
   norm. resid. RMS      .51523  
   source      ORB  
   producer      Otto Matic  
   solution date      2019-Dec-21 05:58:53  

Additional Information
 Earth MOID = .109883 au 
 Jupiter MOID = 1.58636 au 
 T_jup = 3.254 
[ show covariance matrix ]

Ephemeris | Orbit Diagram | Orbital Elements | Mission Design | Physical Parameters | Close-Approach Data ]

Physical Parameter Table
Parameter Symbol Value Units Sigma Reference Notes
absolute magnitude H 20.3   n/a MPO143303  

[ show close-approach data ]
Ephemeris | Orbit Diagram | Orbital Elements | Mission Design | Physical Parameters | Close-Approach Data ]
ABOUT SSD CREDITS/AWARDS PRIVACY/COPYRIGHT GLOSSARY LINKS
FirstGov 2020-Oct-23 03:50 UT
(server date/time)  
NASA Home Page
Site Manager:   Ryan S. Park
Webmaster  Alan B. Chamberlin